Location: Asheville, NC
(35.6000°N, 82.5500°W)
Time: 10:29:30

Vanguard 1 Rocket - Pass Details

Date: 13 March 2018
Orbit: 655 x 4222 km, 34.3° (Epoch: 18 March)

Event Time Altitude Azimuth Distance (km) Brightness Sun altitude
Rises 21:13:00 0° 266° (W) 4,275 12.2 -20.4°
Reaches altitude 10° 21:15:15 10° 266° (W) 3,592 11.5 -20.9°
Maximum altitude 21:25:01 85° 179° (S) 2,273 9.2 -22.8°
Enters shadow 21:35:26 32° 94° (E) 4,397 10.2 -24.8°
Drops below altitude 10° 21:44:56 10° 94° (E) 6,727 - -26.7°
Sets 21:51:05 0° 94° (E) 8,114 - -27.9°
